Location: Unspecified
(64.9000°N, 0.0000°E)
Time: 21:15:31
(UTC+00:00)

A-11 Canister half - Pass Details

Date: 21 June 2019
Orbit: 1526 x 1683 km, 47.3° (Epoch: 17 July)

Event Time Altitude Azimuth Distance (km) Brightness Sun altitude
Rises 07:15:45 0° 239° (WSW) 4,703 11.1 28.9°
Reaches altitude 10° 07:19:25 10° 227° (SW) 3,707 10.8 29.3°
Maximum altitude 07:26:35 26° 176° (S) 2,654 10.6 30.1°
Drops below altitude 10° 07:33:45 10° 125° (SE) 3,700 12.2 30.8°
Sets 07:37:25 0° 114° (ESE) 4,693 12.6 31.2°
